User: anonymous   Login
Location: Unspecified
(0.0000°N, 0.0000°E)
Time: 07:55:55
(UTC+00:00)
Language:

ITAMSAT 1 - Orbit

View from above orbital plane
View from above orbital plane
View from above satellite
View from above satellite

Ground track
Ground track

The orbit data is extracted from the following two-line orbital elements,

1 22826U 93061D   20191.88273644 -.00000016 +00000-0 +11738-4 0  9996
2 22826 098.9171 194.8443 0008005 304.3102 055.7322 14.30424139397257
Epoch (UTC): 09 July 2020 21:11:08
Eccentricity: 0.0008005
inclination: 98.9171°
perigee height: 784 km
apogee height: 796 km
right ascension of ascending node: 194.8443°
argument of perigee: 304.3102°
revolutions per day: 14.30424139
mean anomaly at epoch: 55.7322°
orbit number at epoch: 39725

The dashed part of the orbit path shows where the satellite is in the earth's shadow,  

DLR